Regional Weather Roundup
Issued by NWS Sterling, VA

Home | Current Version | Previous Version | Text Only | Print | Product List | Glossary On
Versions: 1 2 3 4 5 6 7 8 9 10 11 12 13 14 15 16 17 18 19 20 21 22 23 24 25 26 27 28 29 30 31 32 33 34 35 36 37 38 39 40 41 42 43 44 45 46 47 48 49 50
000
ASUS41 KLWX 111810
RWRLWX

REGIONAL WEATHER ROUNDUP
NATIONAL WEATHER SERVICE BALTIMORE MD/WASHINGTON DC
100 PM EST THU FEB 11 2016

Note: "FAIR" indicates few or no clouds below 12,000 feet
with no significant weather and/or obstructions to visibility.
 TC=TEMPERATURE CELSIUS

 * =Non NWS site. Station does not report precipitation (e.g. rain,
    snow, etc.), thunder, or fog.

DCZ001-MDZ009-015-VAZ040>042-051-053>054-111900-
WASHINGTON METRO

CITY           SKY/WX    TMP DP  RH WIND       PRES   REMARKS
WASHINGTON NAT PTSUNNY   30   3  31 W16G26    30.14F WCI  19
DULLES         FAIR      27   3  35 W18G28    30.12S WCI  14
ANDREWS AFB    SUNNY     26   1  32 W18G35    30.09F WCI  13
FT BELVOIR     FAIR      29  -1  27 W20G28    30.12F WCI  16
QUANTICO       FAIR      31   2  29 NW13G25   30.14F WCI  21
COLLEGE PARK*  FAIR      28   1  31 SW15G23   30.12F WCI  17
LEESBURG*      PTSUNNY   28  10  47 W18G28    30.12F WCI  16
MANASSAS*      SUNNY     28   3  34 NW16G24   30.13F WCI  17
GAITHERSBURG*  CLOUDY    23   3  42 W15G24    30.13S WCI  10

$$

MDZ006>007-011-014-111900-
BALTIMORE METRO

CITY           SKY/WX    TMP DP  RH WIND       PRES   REMARKS
BWI AIRPORT    MOSUNNY   26   2  35 W23G37    30.09F WCI  11
MD SCIENCE CTR   N/A     24   0  35 MISG      30.06F
MARTIN STATE   MOSUNNY   27   3  36 W22G30    30.11F WCI  12
ANNAPOLIS      PTSUNNY   26   5  40 W13G25    30.11S WCI  15
FORT MEADE*    PTSUNNY   28   3  34 NW9G20    30.13F WCI  20

$$

MDZ012-015-019>023-111900-
MARYLAND EASTERN SHORE

CITY           SKY/WX    TMP DP  RH WIND       PRES   REMARKS
OCEAN CITY     MOSUNNY   29   5  36 W15G35    30.07F WCI  18
SALISBURY      SUNNY     28   4  35 W18G29    30.08F WCI  15
BAY BRIDGE AP*   N/A     27   3  36 NW18G25   30.11F WCI  13
CAMBRIDGE*     MOSUNNY   28   3  34 NW18G25   30.09F WCI  16
EASTON*        MOSUNNY   28   5  37 NW21G29   30.12F WCI  15

$$

MDZ017>025-111900-
SOUTHERN MARYLAND

CITY           SKY/WX    TMP DP  RH WIND       PRES   REMARKS
PATUXENT RIVER PTSUNNY   30   3  31 W18G26    30.11F WCI  18
ST INIGOES     MOSUNNY   29   7  39 W18G26    30.11F WCI  16
LEONARDTOWN*   MOSUNNY   28   1  31 NW12G22   30.12F WCI  18

$$

MDZ003>005-111900-
NORTH CENTRAL MARYLAND

CITY           SKY/WX    TMP DP  RH WIND       PRES   REMARKS
FREDERICK*     PTSUNNY   23   9  54 W18       30.15S WCI   9
HAGERSTOWN APT MOSUNNY   22   4  46 W24       30.08R WCI   5
WESTMINSTER*   MOSUNNY   21   9  58 NW21G30   30.04F WCI   6

$$

MDZ501>502-111900-
WESTERN MARYLAND

CITY           SKY/WX    TMP DP  RH WIND       PRES   REMARKS
OAKLAND*       HAZE       7   1  78 W10G23    29.96S VSB 3/4 WCI  -8
CUMBERLAND*    MOSUNNY   23   0  36 W16G28    30.16F WCI  10

$$

VAZ025>031-111900-
SHENANDOAH VALLEY

CITY           SKY/WX    TMP DP  RH WIND       PRES   REMARKS
WINCHESTER*    FAIR      23   3  42 NW22G32   30.10S WCI   8
FRONT ROYAL*   FAIR      27   1  33 NW10      30.10S WCI  17
LURAY*         FAIR      27   1  33 W21       30.09F WCI  13
NEW MARKET*    FAIR      24  -1  32 W12G28    30.10S WCI  13
STAUNTON*      FAIR      30   0  27 W12G22    30.11S WCI  21
WAYNESBORO*    FAIR      25  -5  27 W8G16     30.07F WCI  16

$$

WVZ021-048>050-054>055-111900-
EASTERN WEST VIRGINIA PANHANDLE

CITY           SKY/WX    TMP DP  RH WIND       PRES   REMARKS
MARTINSBURG    PTSUNNY   24   1  36 W21G30    30.10F WCI   9
PETERSBURG*    FAIR      22   2  42 NW20G29   30.13F WCI   7

$$

VAZ036>039-050-111900-
CENTRAL FOOTHILLS

CITY           SKY/WX    TMP DP  RH WIND       PRES   REMARKS
CHARLOTTESVILL FAIR      30  -2  25 NW12G18   30.11F WCI  20
CULPEPER*      FAIR      29   0  28 W12G18    30.13F WCI  19
ORANGE*        FAIR      32   1  27 SW14G21   30.13F WCI  22
GORDONSVILLE*  FAIR      30  -1  26 NW12      30.11F WCI  20
WARRENTON*     FAIR      31   8  37 W7        30.11F

$$

VAZ055>057-111900-
NORTH AND CENTRAL PIEDMONT

CITY           SKY/WX    TMP DP  RH WIND       PRES   REMARKS
FREDERICKSBRG* FAIR      31   5  33 W16G23    30.12F WCI  20
STAFFORD*      FAIR      30   1  28 NW14G22   30.15F WCI  20

$$

NCZ024-NYZ072-PAZ021-071-VAZ022-071-111900-
OTHER REGIONAL OBSERVATIONS

CITY           SKY/WX    TMP DP  RH WIND       PRES   REMARKS
NEW YORK CITY  PTSUNNY   24  -3  30 NW8G33    29.91F WCI  15
PHILADELPHIA   PTSUNNY   26  -4  27 W17G31    30.03S WCI  13
PITTSBURGH     PTSUNNY   16   2  54 W15       30.12S WCI   1
ROANOKE        FAIR      28   1  31 NW18      30.16F WCI  15
RICHMOND       FAIR      30   2  30 NW9G24    30.14F WCI  22
RALEIGH        SUNNY     37   5  26 W12G22    30.17F

$$

ANZ530>537-111900-
MARINE OBSERVATIONS

STATION/POSITION TIME  TEMP    WIND        PRES
                       AIR SEA DIR/SP/G
                 (UTC) (F)     (DEG/KT/KT) (MB)
THOMAS PT LIGHT  1800   25 38  290/ 24/ 27 1019.6F
BALT KEY BRIDGE  1700   23     280/ 19/ 28 1019.4S
COVE POINT       1700   25     320/ 10/ 17 1020.5F
LEWISETTA        1700   26 39  310/ 15/ 18 1020.4S
SOLOMONS ISLAND  1700   27 40  280/ 12/ 16   N/A
PINEY POINT      1700          310/ 19/ 21   N/A

$$




USA.gov is the U.S. government's official web portal to all federal, state and local government web resources and services.